Location: Newark
(54.0500°N, 12.8333°E)
Time: 12:51:32
(UTC+00:00)

Altair - Visible Passes

Search period start: 17 January 2020 00:00
Search period end: 27 January 2020 00:00
Orbit: 1502 x 1682 km, 47.2° (Epoch: 17 January)

Date Brightness Start Highest point End Pass type
(mag) Time Alt. Az. Time Alt. Az. Time Alt. Az.
17 Jan 9.9 17:27:26 10° W 17:32:47 16° SW 17:38:04 10° SSW visible
18 Jan 9.9 17:01:54 10° W 17:07:49 18° SW 17:13:37 10° SSW visible
19 Jan 9.9 16:36:26 10° W 16:42:49 19° SW 16:49:05 10° S visible
20 Jan 10.0 16:11:01 10° W 16:17:49 21° SW 16:24:29 10° S visible
24 Jan 10.2 06:18:13 10° SSE 06:24:02 17° SE 06:29:55 10° E visible
25 Jan 10.2 05:53:46 10° SSE 05:59:03 16° SE 06:04:22 10° E visible
26 Jan 10.2 05:29:27 10° SSE 05:34:04 14° SE 05:38:42 10° E visible
